Weather History for KGZH - May, 2013

Change the Weather History Date:

Wednesday, May 8, 2013

  Actual Average (KPRN) Record (KPRN)
Temperature  
Mean Temperature 68 °F -  
Max Temperature 82 °F 83 °F 93 °F (1955)
Min Temperature 53 °F 58 °F 42 °F (1992)
Cooling Degree Days 2    
Growing Degree Days 18 (Base 50)    
Moisture  
Dew Point 55 °F    
Average Humidity 76    
Maximum Humidity 94    
Minimum Humidity 39    
Precipitation  
Precipitation 0.00 in - - ()
Sea Level Pressure  
Sea Level Pressure 30.07 in    
Wind  
Wind Speed 1 mph (WSW)    
Max Wind Speed 10 mph    
Max Gust Speed -    
Visibility 7 miles    
Events      
Averages and records for this station are not official NWS values.
T = Trace of Precipitation, MM = Missing Value Source: NWS Daily Summary

Daily Weather History Graph

Daily Weather History Graph

Search for Another Location

Airport or City:

Trip Planner

Search our weather history database for the weather conditions in past years. The results will help you decide how hot, cold, wet, or windy it might be!

Date:

Astronomy

May. 08, 2013 Rise Set
Actual Time 5:56 AM CDT 7:32 PM CDT
Civil Twilight 5:30 AM CDT 7:59 PM CDT
Nautical Twilight 4:59 AM CDT 8:30 PM CDT
Astronomical Twilight 4:26 AM CDT 9:03 PM CDT
Moon 4:59 AM CDT (5/8) 6:33 PM CDT (5/8)
Length of Visible Light 14h 28m
Length of Day
13h 35m
Waning Crescent, 2% of the Moon is Illuminated
May 8
Waning Crescent
May 9
New
May 17
First Quarter
May 24
Full
May 31
Last Quarter

Hourly Weather History & Observations

Time (CDT) Temp. Heat Index Dew Point Humidity Pressure Visibility Wind Dir Wind Speed Gust Speed Precip Events Conditions
12:53 AM 59.0 °F - 55.9 °F 90% 30.05 in 8.0 mi Calm Calm - N/A   Overcast
1:53 AM 57.0 °F - 55.0 °F 93% 30.03 in 4.0 mi Calm Calm - N/A   Clear
2:22 AM 55.4 °F - 53.6 °F 94% 30.04 in 2.5 mi Calm Calm - N/A   Clear
2:32 AM 55.4 °F - 53.6 °F 94% 30.03 in 5.0 mi Calm Calm - N/A   Clear
2:53 AM 55.9 °F - 53.1 °F 90% 30.03 in 5.0 mi Calm Calm - N/A   Clear
3:08 AM 55.4 °F - 53.6 °F 94% 30.03 in 1.8 mi Calm Calm - N/A   Clear
3:20 AM 55.4 °F - 53.6 °F 94% 30.04 in 3.0 mi Calm Calm - N/A   Clear
3:53 AM 54.0 °F - 52.0 °F 93% 30.04 in 4.0 mi Calm Calm - N/A   Clear
4:09 AM 53.6 °F - 51.8 °F 94% 30.04 in 3.0 mi Calm Calm - N/A   Scattered Clouds
4:19 AM 53.6 °F - 51.8 °F 94% 30.04 in 4.0 mi Calm Calm - N/A   Mostly Cloudy
4:38 AM 53.6 °F - 51.8 °F 94% 30.05 in 2.5 mi Calm Calm - N/A   Overcast
4:46 AM 53.6 °F - 51.8 °F 94% 30.05 in 5.0 mi Calm Calm - N/A   Mostly Cloudy
4:53 AM 53.1 °F - 51.1 °F 93% 30.04 in 6.0 mi Calm Calm - N/A   Mostly Cloudy
5:33 AM 53.6 °F - 50.0 °F 88% 30.06 in 4.0 mi Calm Calm - N/A   Scattered Clouds
5:53 AM 53.1 °F - 50.0 °F 89% 30.06 in 6.0 mi Calm Calm - N/A   Clear
6:53 AM 55.0 °F - 52.0 °F 89% 30.09 in 6.0 mi Calm Calm - N/A   Clear
7:53 AM 61.0 °F - 57.0 °F 87% 30.10 in 10.0 mi Calm Calm - N/A   Clear
8:53 AM 70.0 °F - 60.1 °F 71% 30.12 in 10.0 mi North 3.5 mph - N/A   Clear
9:53 AM 73.9 °F - 57.9 °F 57% 30.12 in 10.0 mi Variable 4.6 mph - N/A   Clear
10:53 AM 75.9 °F - 57.9 °F 54% 30.12 in 10.0 mi West 3.5 mph - N/A   Mostly Cloudy
11:53 AM 78.1 °F - 57.0 °F 48% 30.12 in 10.0 mi SW 6.9 mph - N/A   Partly Cloudy
12:53 PM 78.1 °F - 57.0 °F 48% 30.10 in 10.0 mi SW 5.8 mph - N/A   Scattered Clouds
1:53 PM 79.0 °F - 55.0 °F 44% 30.10 in 10.0 mi Calm Calm - N/A   Mostly Cloudy
2:53 PM 82.0 °F 81.4 °F 55.0 °F 39% 30.08 in 10.0 mi SW 10.4 mph - N/A   Scattered Clouds
3:53 PM 82.0 °F 81.4 °F 55.0 °F 39% 30.06 in 10.0 mi Calm Calm - N/A   Overcast
4:53 PM 80.1 °F 80.0 °F 54.0 °F 40% 30.06 in 10.0 mi Calm Calm - N/A   Scattered Clouds
5:53 PM 82.0 °F 81.7 °F 57.0 °F 42% 30.06 in 10.0 mi Calm Calm - N/A   Overcast
6:53 PM 79.0 °F - 55.9 °F 45% 30.06 in 10.0 mi Calm Calm - N/A   Clear
7:53 PM 69.1 °F - 60.1 °F 73% 30.07 in 10.0 mi Calm Calm - N/A   Clear
8:53 PM 64.9 °F - 60.1 °F 84% 30.08 in 10.0 mi Calm Calm - N/A   Clear
9:53 PM 64.0 °F - 60.1 °F 87% 30.10 in 10.0 mi Calm Calm - N/A   Clear
10:53 PM 62.1 °F - 57.9 °F 86% 30.11 in 10.0 mi Calm Calm - N/A   Clear
11:53 PM 61.0 °F - 57.9 °F 90% 30.10 in 7.0 mi Calm Calm - N/A   Clear